Terug naar catalogus

SL-12 R/B(2)

ActiefGEO
NORAD 12851·ROCKET BODY·🇷🇺 Russia

Gelanceerd Jun 26, 1981 vanaf Baikonur Cosmodrome

Loading…

TLE

VersSource: Space-Track

Epoch: Sep 14, 2026, 22:03 UTC

1 12851U 81061F   26257.91940073 -.00000271  00000-0  00000-0 0  9999
2 12851   5.7906 289.9809 0002124  48.7478 284.6562  1.01010131 48629

Volg SL-12 R/B(2) in realtime met AllMySat

Download on the App Store